Location: *
(49.9853°N, 3.5569°E)
Time: 18:57:11
(UTC+00:00)

MetOp-A - Pass Details

Date: 22 September 2019
Orbit: 820 x 821 km, 98.6° (Epoch: 22 October)

Event Time Altitude Azimuth Distance (km) Brightness Sun altitude
Exits shadow 19:55:16 36° 155° (SSE) 1,284 4.7 -21.0°
Maximum altitude 19:57:33 81° 73° (ENE) 838 4.0 -21.4°
Drops below altitude 10° 20:02:57 10° 347° (NNW) 2,430 7.1 -22.1°
Sets 20:05:18 0° 347° (NNW) 3,367 8.0 -22.4°
